Regional Weather Roundup
Issued by NWS Spokane, WA

Home | Current Version | Previous Version | Text Only | Print | Product List | Glossary On
Versions: 1 2 3 4 5 6 7 8 9 10 11 12 13 14 15 16 17 18 19 20 21 22 23 24 25 26 27 28 29 30 31 32 33 34 35 36 37 38 39 40 41 42 43 44 45 46 47 48 49 50
000
NZUS01 KOTX 040010
RWROTX
EASTERN WASHINGTON/NORTHERN IDAHO ROUNDUP
NATIONAL WEATHER SERVICE, SPOKANE WA
500 PM PDT WED JUN 03 2015

Note: "fair" indicated few or no clouds below 12,000 feet with no
significant weather and/or obstructions to visibility.

...NORTHEAST WASHINGTON AND NORTHERN IDAHO PANHANDLE...

CITY           SKY/WX    TMP DP  RH WIND       PRES   REMARKS
SPOKANE INTL   PTSUNNY   64  42  44 VRB3      29.94F
SPOKANE DOWNTO PTSUNNY   66  44  45 VRB5      29.94F
COEUR D ALENE  CLOUDY    57  48  72 CALM      29.94F
DEER PARK      PTSUNNY   65  46  50 S9        29.94F
SANDPOINT      PTSUNNY   63  45  51 SW6       29.94S
BONNERS FERRY  MOCLDY    63  46  55 SW6       29.93S

...SOUTHEAST WASHINGTON AND SOUTHERN IDAHO PANHANDLE...

CITY           SKY/WX    TMP DP  RH WIND       PRES   REMARKS
WALLA WALLA    MOSUNNY   74  41  30 W7        29.90F
PULLMAN/MOSCOW SUNNY     64  43  46 SW8       29.96F
LEWISTON       CLOUDY    71  44  37 NW8       29.91F
LOWELL           N/A     70  47  43 S5        29.89F

...COLUMBIA BASIN...

CITY           SKY/WX    TMP DP  RH WIND       PRES   REMARKS
EPHRATA        CLOUDY    73  41  31 VRB5      29.89F
MOSES LAKE     CLOUDY    72  41  32 W5        29.90F
TRI CITIES     MOSUNNY   75  43  31 N5        29.89F
HERMISTON      SUNNY     77  40  26 W10       29.88F
PENDLETON      PTSUNNY   73  40  30 W14G22    29.91S

...EAST SLOPES CASCADES...

CITY           SKY/WX    TMP DP  RH WIND       PRES   REMARKS
THE DALLES     SUNNY     69  44  40 NW16G28   29.94S
YAKIMA         CLOUDY    74  43  32 VRB6      29.91F
ELLENSBURG     PTSUNNY   72  44  36 NW20G29   29.92F
WENATCHEE      CLOUDY    73  41  31 W10       29.90S
OMAK           CLOUDY    69  45  41 CALM      29.91F

...SOUTHERN BRITISH COLUMBIA...

CITY           SKY/WX    TMP DP  RH WIND       PRES   REMARKS
PENTICTON      LGT RAIN  63  52  67 NW5       29.95S
CRANBROOK      PTSUNNY   59  45  58 NW6       29.93S

...WESTERN MONTANA...

CITY           SKY/WX    TMP DP  RH WIND       PRES   REMARKS
MISSOULA       MOSUNNY   65  40  39 NW10      29.93S

...NEIGHBORING CITIES...

CITY           SKY/WX    TMP DP  RH WIND       PRES   REMARKS
SEATTLE        PTSUNNY   67  49  52 NW8       30.04F
CALGARY        PTSUNNY   55  50  82 NE3       29.91S



USA.gov is the U.S. government's official web portal to all federal, state and local government web resources and services.